Flag Weather past 2 weeks in Yarmouth County, Nova Scotia, Canada

Now
55 °F

Light rain. Fog.


Feels Like: 50 °F
Forecast: N/A
Wind: 26 mph from South

Location: Yarmouth

Current Time: Nov 24, 2014 at 5:48:42 PM

Latest Report: Nov 24, 2014 at 5:00 PM


Visibility: 2 mi

Pressure: 29.83 "Hg

Humidity: 100%

Dew point: 55 °F

Location of Yarmouth CountyLocation

Historic Weather in Yarmouth County — Graph

°F

Yarmouth County temperature yesterday

Maximum temperature yesterday: 50 °F (at 2:00 PM)
Minimum temperature yesterday: 39 °F (at 10:00 PM)
Average temperature yesterday: 46 °F

Past Weeks' High & Low Weather Summary

 TemperatureHumidityPressure
High59 °F (Nov 17, 11:00 PM)100% (Nov 10, 12:00 AM)30.38 "Hg (Nov 10, 12:00 AM)
Low27 °F (Nov 16, 7:00 AM)45% (Nov 18, 8:00 PM)29.34 "Hg (Nov 18, 4:00 AM)
Average42 °F79%29.98 "Hg
* Reported Nov 9 4:00 PM — Nov 24 4:00 PM, Yarmouth County, Weather by CustomWeather, © 2014

Note: Actual official high and low records may vary slightly from our data, if they occured in-between our weather recording intervals... More about our weather records

Advertising

Yarmouth County weather history for previous 24 hours

 ConditionsComfort  
Time TempWeatherWind HumidityBarometerVisibility
4:00 PM
Nov 24
55 °FRain. Fog.24 mph100%29.85 "Hg2 mi
3:00 PM54 °FLight rain. Fog.23 mph100%29.89 "Hg2 mi
2:00 PM55 °FLight rain. Fog.24 mph94%29.94 "Hg3 mi
1:00 PM54 °FLight rain. Fog.17 mph94%29.98 "Hg6 mi
12:00 PM52 °FLight rain. More clouds than sun.13 mph94%30.06 "Hg7 mi
11:00 AM52 °FMostly cloudy.14 mph88%30.11 "Hg8 mi
10:00 AM50 °FOvercast.14 mph94%30.11 "Hg8 mi
9:50 AM48 °FFog.13 mph100%30.12 "Hg6 mi
9:00 AM48 °FFog.9 mph100%30.14 "Hg3 mi
8:48 AM48 °FFog.10 mph100%30.14 "Hg3 mi
8:00 AM46 °FFog.9 mph100%30.17 "Hg2 mi
7:00 AM45 °FFog.9 mph100%30.17 "Hg3 mi
6:00 AM43 °FClear.9 mph100%30.18 "Hg9 mi
5:00 AM41 °FClear.7 mph100%30.19 "Hg9 mi
4:00 AM41 °FPassing clouds.3 mph100%30.20 "Hg9 mi
3:00 AM39 °FLow clouds.6 mph100%30.21 "Hg9 mi
2:45 AM39 °FFog.5 mph100%30.22 "Hg3 mi
2:00 AM37 °FFog.5 mph100%30.21 "Hg0 mi
1:00 AM36 °FFog.2 mph100%30.21 "Hg0 mi
12:00 AM37 °FFog.3 mph100%30.21 "Hg5 mi
11:00 PM
Nov 23
41 °FFog.3 mph100%30.23 "Hg9 mi
10:00 PM39 °FFog.3 mph100%30.22 "Hg6 mi
9:00 PM41 °FPassing clouds.2 mph100%30.19 "Hg12 mi
8:00 PM43 °FPassing clouds.No wind100%30.16 "Hg12 mi
7:00 PM43 °FPassing clouds.No wind100%30.15 "Hg12 mi
6:00 PM46 °FOvercast.2 mph87%30.14 "Hg9 mi
5:00 PM48 °FFog.5 mph82%30.12 "Hg6 mi
Weather by CustomWeather, © 2014

See weather overviewHow to use our weather pages